The Dalles, WA

10:22 AM PDT on July 16, 2019 (GMT -0700)
Columbia Gorge Regional-The Dalles

Weather History for KDLS - May, 2019

Change the Weather History Date:

Friday, May 31, 2019

  Actual Average Record
Temperature  
Mean Temperature 74 °F -  
Max Temperature 87 °F 76 °F 98 °F (1986)
Min Temperature 62 °F 50 °F 41 °F (1974)
Cooling Degree Days 9    
Growing Degree Days 24 (Base 50)    
Moisture  
Dew Point 57 °F    
Average Humidity 57    
Maximum Humidity 78    
Minimum Humidity 36    
Precipitation  
Precipitation 0.00 in - - ()
Sea Level Pressure  
Sea Level Pressure 29.93 in    
Wind  
Wind Speed 12 mph (NW)    
Max Wind Speed 16 mph    
Max Gust Speed 20 mph    
Visibility 10 miles    
Events      
Averages and records for this station are not official NWS values.
T = Trace of Precipitation, MM = Missing Value Source: NWS Daily Summary

Daily Weather History Graph

Daily Weather History Graph

Search for Another Location

Airport or City:

Astronomy

May. 31, 2019 Rise Set
Actual Time 5:19 AM PDT 8:45 PM PDT
Civil Twilight 4:42 AM PDT 9:22 PM PDT
Nautical Twilight 3:54 AM PDT 10:11 PM PDT
Astronomical Twilight 2:52 AM PDT 11:13 PM PDT
Moon 4:08 AM PDT (5/31) 5:50 PM PDT (5/31)
Length of Visible Light 16h 39m
Length of Day
15h 26m
Waning Crescent, 8% of the Moon is Illuminated
May 31
Waning Crescent
Jun 3
New
Jun 9
First Quarter
Jun 17
Full
Jun 25
Last Quarter

Hourly Weather History & Observations

Time (PDT) Temp. Heat Index Dew Point Humidity Pressure Visibility Wind Dir Wind Speed Gust Speed Precip Events Conditions
12:53 AM 68.0 °F - 55.9 °F 65% 29.94 in 10.0 mi NW 16.1 mph - N/A   Partly Cloudy
1:53 AM 66.9 °F - 55.9 °F 68% 29.95 in 10.0 mi NNW 16.1 mph - N/A   Clear
2:53 AM 66.0 °F - 55.9 °F 70% 29.96 in 10.0 mi NW 12.7 mph - N/A   Clear
3:53 AM 64.0 °F - 55.0 °F 73% 29.96 in 10.0 mi WNW 10.4 mph - N/A   Clear
4:53 AM 62.1 °F - 55.0 °F 78% 29.98 in 10.0 mi West 8.1 mph - N/A   Clear
5:53 AM 62.1 °F - 55.0 °F 78% 29.99 in 10.0 mi NNW 12.7 mph - N/A   Clear
6:53 AM 63.0 °F - 55.0 °F 75% 30.00 in 10.0 mi NW 11.5 mph - N/A   Clear
7:53 AM 64.9 °F - 55.0 °F 70% 30.01 in 10.0 mi NW 11.5 mph - N/A   Clear
8:53 AM 68.0 °F - 55.9 °F 65% 30.01 in 10.0 mi NNW 11.5 mph - N/A   Clear
9:53 AM 72.0 °F - 57.0 °F 59% 30.00 in 10.0 mi NNW 10.4 mph - N/A   Clear
10:53 AM 75.9 °F - 57.9 °F 54% 29.99 in 10.0 mi NNW 8.1 mph - N/A   Clear
11:53 AM 80.1 °F 80.7 °F 59.0 °F 48% 29.98 in 10.0 mi NW 6.9 mph - N/A   Clear
12:53 PM 82.9 °F 82.6 °F 57.9 °F 42% 29.95 in 10.0 mi North 5.8 mph - N/A   Clear
1:53 PM 84.9 °F 83.6 °F 55.0 °F 36% 29.92 in 10.0 mi NW 8.1 mph - N/A   Clear
2:53 PM 86.0 °F 84.9 °F 57.0 °F 37% 29.90 in 10.0 mi NNW 10.4 mph - N/A   Clear
3:53 PM 86.0 °F 84.7 °F 55.9 °F 36% 29.87 in 10.0 mi NNW 15.0 mph - N/A   Clear
4:53 PM 86.0 °F 85.0 °F 57.9 °F 38% 29.86 in 10.0 mi NNW 9.2 mph - N/A   Clear
5:53 PM 82.0 °F 82.1 °F 59.0 °F 45% 29.85 in 10.0 mi NNW 8.1 mph - N/A   Clear
6:53 PM 81.0 °F 81.7 °F 61.0 °F 50% 29.85 in 10.0 mi NNW 9.2 mph - N/A   Clear
7:53 PM 79.0 °F - 60.1 °F 52% 29.86 in 10.0 mi NNW 10.4 mph - N/A   Clear
8:53 PM 75.9 °F - 57.9 °F 54% 29.87 in 10.0 mi NW 11.5 mph 19.6 mph N/A   Clear
9:53 PM 73.9 °F - 57.0 °F 55% 29.88 in 10.0 mi NNW 12.7 mph - N/A   Clear
10:53 PM 73.0 °F - 57.0 °F 57% 29.90 in 10.0 mi NW 4.6 mph - N/A   Clear
11:53 PM 72.0 °F - 57.0 °F 59% 29.90 in 10.0 mi NNW 15.0 mph - N/A   Clear